Theta_e
353 352 352 351 350 348 350 350 351 351 351 350 350 350 350 349 350 349 348 347 347 347 348 349 350 350 351 352 353 352 352 351 351 351 350 349 349 349 347 346 346 347 347 347 346 345 348 348 348 350 349 347 345 345 348 342 340 348 349 349 350 350 351 350 350 350 349 349 349 349 348 349 349 345 342 343 345 345 345 344 344 344 344 344 344
354 351 350 349 349 348 348 349 350 351 351 350 350 350 350 349 349 347 346 347 346 348 349 350 351 352 353 352 353 353 352 351 351 351 351 350 349 349 348 347 348 347 348 348 346 343 344 347 347 349 349 348 346 344 347 345 341 345 348 349 349 350 350 350 350 350 350 350 349 349 349 349 350 349 345 344 346 347 346 345 344 345 344 344 344
353 352 349 348 348 348 348 350 350 350 350 350 349 350 349 349 349 347 346 347 347 349 349 350 351 352 352 351 352 352 352 351 351 351 351 350 351 350 349 348 348 347 347 348 348 344 343 345 346 348 350 349 348 346 346 347 344 345 347 347 348 348 349 349 349 350 350 350 350 350 350 350 349 350 349 347 347 346 345 345 345 345 345 345 345
353 352 350 348 348 348 349 351 350 350 349 349 348 349 349 349 349 347 347 347 347 348 349 349 349 352 352 349 349 351 351 351 351 351 351 351 350 350 348 348 349 347 345 347 349 348 345 346 347 348 349 349 349 347 346 346 347 347 347 347 347 348 348 348 349 349 349 350 350 350 349 350 350 350 350 349 349 348 346 346 345 345 345 346 346
352 352 352 349 349 350 350 350 349 348 348 348 347 349 349 349 349 348 348 348 348 349 349 347 347 349 351 348 347 349 350 351 351 351 350 351 350 349 349 348 349 348 346 347 349 349 348 347 347 347 349 349 350 349 347 346 347 348 348 348 348 348 348 348 348 349 348 348 349 349 350 350 350 350 350 349 349 348 347 346 346 346 347 347 348
351 352 352 349 349 351 351 350 348 348 348 349 349 349 350 350 350 349 349 348 349 349 347 346 345 346 349 350 348 348 350 351 351 351 350 350 350 350 350 349 349 348 347 348 350 350 348 348 347 347 348 349 351 350 348 347 347 347 349 349 350 349 349 349 348 349 348 347 347 347 349 349 350 350 350 350 349 349 347 346 347 347 347 347 347
351 352 352 350 350 349 350 350 349 348 349 351 351 350 350 350 350 349 349 349 349 349 346 345 345 345 347 350 350 349 349 351 351 352 351 350 350 350 350 350 350 350 349 348 349 350 349 348 347 348 348 348 350 350 350 349 347 347 348 348 350 350 350 350 350 349 349 348 346 345 345 346 348 349 350 350 349 349 348 347 347 347 347 346 344
351 352 351 351 350 349 350 349 348 348 349 350 350 350 350 350 351 351 350 349 349 350 347 346 345 345 347 348 349 348 349 351 352 352 351 351 350 350 350 350 350 350 349 348 349 351 351 348 347 348 348 348 348 349 350 350 348 348 348 348 349 349 350 351 351 350 350 349 348 346 344 342 343 344 345 348 349 348 348 348 347 348 346 345 343
350 351 351 351 352 350 350 349 349 348 348 348 348 351 350 351 351 350 350 349 348 349 347 347 346 345 348 348 348 349 350 351 352 353 352 351 351 351 350 350 351 351 350 349 349 350 350 349 348 348 348 348 349 349 350 351 350 350 349 348 348 349 349 350 351 352 352 350 349 348 347 345 344 341 340 341 344 346 347 347 346 346 344 343 341
350 351 352 352 352 352 351 350 349 349 349 349 349 351 352 351 351 349 349 350 348 348 348 346 346 345 346 347 348 349 349 350 352 353 353 352 352 351 351 350 351 351 350 350 349 349 349 349 349 348 347 347 348 349 350 351 351 351 350 349 349 348 348 348 350 352 352 351 350 350 349 349 349 346 342 339 340 341 343 343 344 344 344 344 343
350 350 352 352 352 352 352 350 349 349 349 349 348 349 351 351 351 350 349 349 348 348 347 346 346 346 347 347 347 349 349 350 353 354 353 352 351 352 352 350 350 351 350 350 350 349 348 349 349 349 349 347 347 348 349 350 350 350 350 350 349 349 348 347 348 350 350 351 351 350 350 349 349 348 346 345 345 344 344 345 345 347 347 347 347
348 349 351 353 352 350 350 350 349 349 350 349 346 348 351 351 350 349 348 349 348 348 347 346 346 346 348 349 350 351 351 351 354 354 353 353 352 351 352 351 350 350 350 350 350 350 349 348 348 349 348 348 348 347 348 349 349 350 349 350 350 349 349 348 347 348 348 349 350 350 350 349 349 348 348 349 349 348 349 349 349 349 349 348 347
350 350 350 353 352 349 348 349 349 350 351 349 348 350 351 351 349 349 350 350 348 348 347 345 346 349 351 353 353 354 353 353 354 355 355 355 353 351 352 353 352 351 351 350 350 351 349 349 349 348 347 347 348 347 347 348 348 348 348 348 349 349 349 349 349 348 347 347 348 349 349 349 349 348 348 349 349 349 349 349 349 349 349 348 346
351 351 351 353 352 348 345 346 349 351 353 351 350 351 351 351 351 349 350 348 347 348 347 346 347 350 354 355 355 356 355 355 355 355 355 355 354 352 353 355 354 352 351 351 351 351 351 351 350 350 349 347 347 347 347 348 348 348 348 347 347 348 349 349 349 350 349 348 347 347 347 348 348 348 348 348 348 348 348 348 348 348 348 347 346
351 351 351 353 352 346 341 344 348 352 353 353 351 352 352 352 351 350 349 346 347 348 347 347 348 350 354 356 356 359 359 357 357 357 355 354 354 354 354 354 355 354 353 352 352 353 352 352 352 351 350 349 348 347 347 347 348 348 348 347 347 346 347 348 349 350 350 350 349 348 346 345 345 346 346 346 346 346 347 348 348 348 348 347 346
351 351 351 352 351 346 340 344 349 351 352 352 352 352 352 352 351 350 349 348 348 348 348 348 348 349 355 358 356 357 361 360 357 357 356 356 356 354 354 354 353 354 354 354 353 353 352 353 353 352 351 351 350 348 347 346 347 347 348 349 348 347 346 347 347 349 349 350 350 350 348 347 346 345 345 346 346 346 347 348 348 348 348 347 347
351 351 351 351 352 348 341 343 349 351 352 352 351 352 352 352 351 349 348 350 350 348 348 348 348 348 352 359 359 361 367 361 353 355 354 355 356 353 353 352 352 352 353 354 353 352 353 353 353 353 353 352 351 350 348 347 346 347 347 349 349 348 348 347 347 348 349 349 349 350 349 349 348 347 347 347 347 347 348 349 348 348 348 347 347
350 350 351 351 351 349 343 342 347 351 353 352 351 351 352 351 349 348 348 351 351 348 348 348 349 348 348 352 354 357 363 358 355 357 354 353 355 353 352 351 352 352 352 354 354 353 353 354 354 354 354 354 353 352 350 348 348 347 348 348 348 349 349 349 348 348 348 348 349 349 350 349 349 348 348 348 348 349 349 349 348 348 348 348 348
350 351 352 351 351 350 345 342 346 350 352 353 352 350 351 351 349 349 349 351 350 348 348 349 350 349 350 351 350 350 351 353 358 360 355 356 355 353 354 354 353 353 352 354 355 354 353 353 353 354 354 354 355 354 352 350 350 350 350 349 349 349 349 349 348 348 348 348 348 349 349 349 349 349 349 349 349 349 349 349 349 349 349 349 349
351 352 352 352 351 351 346 343 343 348 351 351 352 351 351 351 351 351 351 350 349 348 348 350 349 350 351 352 352 350 348 349 353 354 357 361 359 356 356 355 355 354 354 355 355 356 354 353 354 354 354 355 355 355 354 354 353 353 352 352 351 351 351 351 350 349 348 348 348 348 348 349 349 349 349 349 349 349 349 349 349 350 350 350 350
351 352 352 352 352 350 348 347 345 345 350 350 350 352 352 352 352 352 351 348 347 347 347 347 348 349 350 352 352 351 350 351 351 349 353 360 362 363 358 355 356 355 354 356 355 356 356 355 355 354 355 354 354 355 355 355 355 355 354 353 353 353 353 353 352 351 350 350 349 348 348 348 347 348 348 349 350 349 349 349 349 350 349 350 350
351 351 352 351 351 350 350 352 351 347 348 349 350 353 353 353 352 352 351 348 346 347 347 347 348 348 348 351 353 353 352 354 354 351 352 355 359 361 355 353 357 355 353 354 354 356 357 356 356 356 356 355 354 354 355 356 356 356 355 355 355 354 354 354 353 354 354 353 352 351 350 349 347 347 347 349 349 349 349 349 349 349 348 349 349
352 351 351 351 350 351 351 353 354 350 348 346 347 350 353 353 352 351 352 350 348 348 348 348 349 349 349 350 353 353 353 354 354 353 354 356 359 360 355 353 356 355 353 353 353 355 357 357 357 358 357 356 355 355 356 356 356 356 356 355 355 355 354 354 353 353 354 353 353 352 351 350 349 348 347 348 348 348 348 348 348 349 349 349 349
353 352 351 351 351 351 351 352 353 352 350 348 348 348 350 352 352 352 352 351 349 349 348 348 349 350 349 351 352 352 352 352 352 352 354 355 357 358 355 354 356 355 354 354 354 354 355 355 357 357 359 358 357 357 357 357 357 357 356 356 355 355 355 354 353 353 353 353 353 352 352 351 350 349 349 349 348 348 348 348 348 348 349 348 348
352 353 352 351 351 350 351 351 351 351 350 350 351 349 349 350 351 351 351 351 350 350 348 348 350 350 350 351 353 353 353 352 351 352 354 353 355 356 354 353 355 354 354 356 355 354 354 353 354 356 358 359 358 358 358 358 357 357 356 356 354 354 354 353 354 353 353 353 352 351 351 351 351 351 350 350 348 348 349 348 348 348 347 348 348
352 352 352 352 351 350 350 350 350 350 350 350 351 351 351 350 349 350 352 350 350 350 348 349 350 351 351 352 353 352 352 352 352 352 354 353 355 355 354 355 355 354 355 355 355 355 356 354 353 354 356 359 360 359 359 359 358 358 357 356 354 353 354 354 354 354 354 354 352 351 349 348 349 349 350 351 350 348 348 347 347 348 348 348 347
353 353 353 351 351 351 350 350 350 349 349 349 350 351 352 352 350 350 351 351 351 350 350 350 351 351 352 352 354 353 352 353 353 354 353 353 354 354 355 358 360 359 357 356 354 354 355 356 355 354 355 357 358 359 360 359 359 358 357 356 355 355 354 353 354 354 354 354 353 352 349 347 345 344 348 352 350 348 349 349 348 349 349 349 348
353 353 353 352 351 352 350 350 350 349 349 350 350 352 352 353 352 351 351 351 351 352 351 352 352 352 353 353 354 354 354 354 354 355 354 354 354 354 354 356 358 362 362 360 360 357 356 356 356 354 354 355 357 359 360 360 359 358 356 355 356 356 355 355 355 354 353 353 352 351 350 347 345 342 345 349 348 348 351 351 351 351 351 349 346
353 352 353 353 353 351 350 350 350 349 349 349 350 352 352 353 352 352 352 352 351 352 353 353 354 354 354 355 356 355 355 354 354 355 355 354 354 353 353 353 354 359 363 366 366 361 356 356 354 353 353 354 356 359 360 359 358 357 355 355 357 357 356 357 356 355 352 351 351 351 350 348 346 344 344 345 347 350 351 351 352 351 348 345 344
353 352 352 354 353 351 350 350 350 350 350 349 350 351 351 353 353 352 352 352 351 352 353 355 355 355 355 355 356 355 353 353 353 353 354 353 354 354 353 353 353 354 357 362 364 357 353 355 354 353 353 353 354 355 355 355 355 355 355 355 357 357 357 357 357 356 354 352 352 352 351 349 346 345 344 345 348 351 351 352 351 346 343 344 345
353 353 353 353 353 352 351 350 350 350 351 351 350 350 352 353 353 353 352 351 351 351 353 354 354 354 355 354 354 354 354 354 354 354 354 354 354 354 354 353 352 353 353 355 360 357 354 354 354 352 353 352 352 352 352 352 354 355 355 356 357 356 357 356 356 356 355 354 353 353 353 351 348 347 346 346 347 349 351 352 347 340 339 343 344
354 352 352 352 353 353 351 349 350 350 350 352 351 351 352 352 352 352 352 351 351 351 352 353 353 354 355 354 354 354 355 355 355 354 354 353 353 355 355 353 352 354 353 352 357 358 354 352 352 352 351 351 351 352 353 353 354 354 354 354 355 355 355 356 356 356 355 355 354 354 354 353 351 349 348 347 347 348 351 349 342 335 335 338 340
354 353 351 351 351 352 350 349 350 349 348 349 350 351 352 352 352 352 351 351 351 351 352 354 353 354 355 356 355 355 355 355 354 354 353 353 354 355 354 353 352 353 354 353 354 355 353 352 352 351 351 353 352 352 354 354 354 354 354 354 354 354 355 356 356 357 356 356 355 356 355 355 355 353 350 349 347 347 348 346 340 335 332 332 339
352 352 351 350 350 350 351 350 350 348 348 348 348 349 351 351 352 352 352 352 352 352 353 354 354 354 355 356 356 356 356 355 354 354 353 354 355 355 354 353 351 352 353 353 353 352 352 352 351 350 350 353 353 352 352 353 354 354 354 354 354 354 354 355 356 356 356 356 356 356 357 357 357 356 353 351 349 347 347 346 342 338 333 332 339
350 350 350 349 349 350 352 351 350 348 347 348 349 348 349 351 352 352 352 352 352 353 354 355 354 355 355 356 356 356 356 356 355 354 353 354 355 355 354 352 352 352 352 352 352 352 351 351 352 351 350 352 354 354 353 353 354 353 353 353 353 352 352 353 354 354 353 354 356 357 358 358 358 358 356 353 350 348 348 347 344 342 338 335 336
350 347 347 347 349 352 354 354 352 351 349 349 349 348 347 350 352 352 352 353 354 354 355 356 356 356 356 356 356 354 355 355 354 353 353 354 356 356 355 353 352 352 352 351 352 353 352 352 351 351 351 351 353 353 354 354 353 352 352 351 351 351 351 352 352 353 353 355 357 358 359 359 358 357 356 355 353 351 349 348 346 344 342 340 338
351 348 345 345 348 352 354 354 355 354 351 349 348 348 348 347 349 353 352 353 354 355 355 357 356 356 356 356 356 355 355 355 355 354 354 355 357 356 355 354 352 352 352 352 352 352 352 352 351 351 351 352 353 353 354 353 353 352 351 351 351 350 351 352 352 352 354 355 357 359 359 358 357 355 355 356 355 353 350 349 348 346 344 343 342
353 352 350 347 348 351 353 355 356 354 352 349 348 348 348 347 346 351 354 353 354 355 355 356 356 356 357 356 356 357 356 356 356 355 354 355 357 356 355 353 352 351 351 352 353 353 352 352 351 351 352 353 353 354 354 354 353 353 352 351 352 351 352 354 354 353 353 354 356 357 358 357 356 356 355 355 355 354 352 350 348 348 347 346 345
352 354 354 353 353 354 355 356 356 354 352 350 350 349 349 347 347 349 352 354 354 354 355 356 356 357 357 356 357 357 357 357 356 354 354 356 357 356 356 354 352 351 352 353 354 353 352 352 351 351 352 353 354 354 354 355 355 355 355 354 353 352 353 355 356 356 356 355 356 357 357 357 357 355 354 354 354 354 353 351 350 351 351 350 349
351 353 354 355 355 356 356 356 355 355 352 351 352 350 349 348 348 349 351 353 354 354 355 355 356 356 357 357 357 357 357 357 356 354 354 355 357 357 357 356 352 350 352 354 355 354 353 353 353 353 353 353 355 354 354 356 356 356 356 354 354 353 353 354 355 355 356 356 356 356 356 356 356 355 355 354 355 355 354 352 352 353 352 352 351
351 353 354 355 355 355 355 355 355 355 354 353 353 352 350 349 349 351 352 354 354 354 355 356 356 357 357 357 357 357 357 357 356 355 354 353 354 355 356 355 353 352 352 354 355 355 354 355 354 354 355 355 355 355 354 355 355 355 355 355 354 353 352 354 354 355 355 356 356 356 355 354 354 355 354 354 354 355 355 355 354 354 353 352 351
351 352 352 354 354 354 354 354 354 354 354 355 355 354 351 350 350 352 354 356 355 355 355 356 356 357 357 357 358 357 357 357 356 355 353 353 353 354 355 355 355 354 352 353 356 356 355 355 354 354 354 354 354 354 353 353 354 354 355 355 354 354 353 354 354 354 355 355 355 354 353 353 353 353 354 354 354 354 354 355 354 354 354 353 352
349 350 351 352 352 353 354 353 354 354 355 356 356 355 353 351 351 352 353 355 356 357 356 356 357 357 357 357 357 357 357 356 355 354 354 355 356 356 357 357 356 356 353 352 354 356 356 355 355 354 354 354 354 354 354 353 353 353 355 355 355 355 354 353 352 353 353 353 354 354 353 353 353 352 353 353 354 354 354 353 353 353 354 353 353
349 349 349 350 350 351 352 353 353 354 355 355 356 355 354 354 355 355 354 353 355 357 358 357 357 357 357 356 356 355 355 354 354 353 355 357 357 356 357 357 357 356 355 352 352 354 355 355 355 355 354 354 354 353 353 353 353 354 355 355 355 354 354 352 352 352 352 353 354 354 353 353 353 352 353 353 353 354 353 353 353 353 353 353 352
350 350 349 350 350 350 350 352 353 354 354 355 355 356 356 355 355 357 356 354 355 355 356 356 356 355 356 355 355 354 355 354 354 354 354 355 356 356 357 357 357 356 355 353 352 352 354 354 354 354 354 353 353 352 352 353 353 353 355 354 355 354 353 352 352 352 353 353 354 354 354 353 353 353 353 353 353 354 353 353 353 353 352 352 352
349 350 350 349 349 350 350 351 352 354 353 354 354 354 355 355 354 354 355 354 354 354 354 354 354 354 354 354 354 355 355 355 354 354 354 353 354 355 355 355 356 355 355 355 353 353 354 352 352 354 353 352 352 352 351 352 352 352 353 353 354 354 353 352 352 352 352 353 353 353 353 353 353 353 353 353 354 353 353 353 353 352 352 351 351
348 349 349 349 349 349 351 351 352 353 353 353 353 354 354 353 353 352 353 353 353 352 353 353 354 354 353 353 354 355 355 355 355 354 353 353 353 354 353 353 354 354 355 355 354 355 355 353 351 354 354 353 352 352 351 351 351 352 353 353 354 353 352 352 352 352 352 352 353 353 353 352 352 352 353 353 353 353 353 353 352 351 350 350 350
349 348 347 348 348 348 349 350 350 351 352 352 352 352 353 352 351 351 352 351 351 351 352 352 353 353 352 352 353 355 354 354 354 353 353 353 353 353 352 352 353 355 355 355 355 356 355 353 352 354 355 353 353 352 352 352 353 353 353 354 354 354 353 352 352 351 350 350 351 352 352 352 352 352 352 352 352 353 353 352 351 350 349 348 346
350 348 346 346 346 347 347 348 349 349 349 350 350 350 351 350 350 350 350 350 350 350 351 351 352 352 352 352 354 354 354 354 354 354 354 355 354 353 352 352 354 355 355 354 355 355 354 352 353 354 353 353 353 353 352 353 353 352 352 352 351 352 352 351 350 349 347 348 350 351 352 352 351 351 352 352 352 352 351 351 350 348 348 346 343
348 346 346 346 346 346 346 347 347 348 348 348 348 348 348 348 348 348 348 349 350 350 350 350 351 351 352 352 353 353 353 354 354 354 354 354 353 353 353 352 353 354 354 353 352 353 354 353 354 354 353 354 354 354 354 352 349 347 346 346 345 346 348 349 348 347 347 348 349 350 352 352 350 351 352 350 349 350 350 349 348 348 346 345 343
347 345 346 346 346 346 346 346 347 346 346 347 347 347 348 348 348 347 348 349 350 350 350 349 350 351 352 352 353 353 353 354 354 354 353 352 352 353 353 352 352 354 354 351 349 352 354 354 354 353 353 354 354 354 350 346 344 343 342 342 341 341 344 345 346 347 348 348 349 349 351 351 351 350 351 348 347 347 348 347 347 347 346 344 343
Wind_Speed
13 12 12 13 11 10 10 10 9 9 10 11 11 11 9 9 9 10 11 11 11 10 9 8 8 10 11 11 10 10 11 12 11 10 10 11 13 13 14 15 15 16 18 18 18 18 18 17 17 16 16 16 15 15 15 17 19 19 18 17 16 16 17 17 17 17 17 17 16 16 15 15 14 13 12 13 13 14 13 12 12 12 12 12 11
14 12 10 11 11 10 10 10 10 10 11 12 12 13 11 10 10 10 11 11 10 10 9 8 7 8 9 10 10 10 11 11 11 11 10 10 11 13 14 16 16 17 18 19 19 20 19 18 18 17 17 17 17 16 16 18 20 19 18 18 16 16 16 17 18 17 18 18 17 17 16 16 16 15 14 13 13 14 13 12 13 12 13 13 13
15 12 9 9 10 9 9 10 11 12 12 12 13 14 13 11 10 10 10 9 8 8 9 7 7 7 7 7 8 8 9 10 9 10 11 10 10 12 14 15 16 18 19 19 20 21 21 20 19 18 18 18 18 17 17 18 20 20 19 18 17 16 16 16 17 17 18 18 18 18 17 17 17 17 16 15 14 14 13 14 14 14 14 14 14
15 13 10 9 9 9 10 12 12 11 12 13 13 14 12 11 10 10 9 8 8 8 7 6 7 8 6 5 5 6 8 9 9 9 11 11 11 12 13 14 15 17 19 19 20 21 21 21 20 19 19 19 19 19 19 18 19 20 20 19 19 18 17 17 17 17 18 18 19 18 18 18 18 18 17 16 15 15 14 14 15 15 15 15 15
17 16 14 12 10 10 10 12 11 9 11 11 11 12 11 11 11 11 10 9 8 7 6 5 6 7 7 5 4 5 7 8 9 10 10 11 11 12 12 13 14 17 19 19 20 20 21 21 21 21 20 19 19 19 20 20 19 20 21 21 21 20 19 19 19 18 18 19 19 19 19 19 19 19 18 18 17 16 16 16 16 16 16 16 16
18 17 16 15 13 11 10 10 9 10 12 9 9 9 10 10 11 12 12 10 7 7 6 4 5 5 6 7 5 5 7 8 9 10 11 11 11 11 12 12 13 16 19 20 20 20 21 21 21 21 21 21 20 20 20 20 21 20 20 21 22 22 21 20 20 20 20 19 19 19 19 19 20 20 20 19 18 18 17 17 17 17 17 18 18
18 18 17 15 14 13 11 10 9 10 11 7 7 7 9 9 10 12 12 10 8 9 7 3 3 4 5 7 6 6 7 7 8 10 11 11 11 12 11 12 13 15 18 20 20 20 21 21 21 21 22 22 21 21 20 21 21 21 21 21 22 21 21 21 21 21 21 20 20 20 20 21 21 21 20 20 20 19 19 18 18 19 19 20 20
19 19 18 16 16 15 14 11 9 9 9 9 7 8 9 10 11 12 13 12 9 11 9 4 3 3 4 6 7 8 7 6 7 9 11 11 11 12 13 13 14 15 17 19 20 20 21 21 22 22 22 23 23 23 22 21 22 22 22 22 22 21 21 21 22 22 22 21 21 21 21 21 21 21 21 22 22 21 21 20 21 21 21 22 22
19 18 17 17 16 17 16 13 11 10 9 11 10 9 11 12 12 12 13 12 9 10 10 7 4 4 5 5 7 8 8 7 7 8 10 11 10 11 13 14 14 14 15 17 19 21 21 21 22 22 22 23 23 23 23 22 22 22 22 22 22 21 21 22 22 22 21 22 22 21 21 21 21 20 20 22 23 23 23 23 23 23 23 23 22
18 17 16 17 16 17 18 16 14 11 9 11 11 11 13 13 14 12 9 10 9 7 7 5 5 6 6 5 7 8 8 8 7 7 8 9 9 9 10 13 15 15 15 16 18 20 21 21 21 22 23 23 24 24 24 23 22 23 23 23 23 23 22 22 22 22 22 22 23 22 22 22 22 21 20 20 22 23 24 23 23 23 22 21 21
19 18 17 17 17 17 18 17 16 12 10 13 12 14 14 13 13 9 5 9 9 6 5 4 5 6 6 5 6 8 8 8 8 7 7 7 8 8 9 11 14 16 16 16 17 18 20 21 21 22 23 24 24 25 25 25 24 24 24 24 24 24 24 23 23 23 23 23 23 23 23 23 22 22 21 20 21 22 22 23 22 22 21 21 21
22 20 19 18 17 18 19 18 16 13 13 15 13 13 13 12 11 7 4 7 9 8 6 5 7 6 6 5 5 6 7 8 9 8 7 7 9 10 10 10 12 16 18 17 16 16 18 20 21 23 23 24 25 25 26 26 26 25 26 26 26 26 25 25 25 24 24 24 24 24 24 23 23 23 22 22 22 22 22 23 23 22 22 22 23
22 21 21 20 18 18 19 19 17 13 13 14 12 12 12 11 9 8 6 6 7 9 9 7 7 6 5 6 6 5 6 7 8 8 8 8 10 12 11 10 11 14 17 17 16 16 17 18 19 21 22 23 24 25 26 26 26 27 27 28 28 27 27 27 27 26 26 26 26 26 25 25 25 25 25 25 24 25 25 25 24 24 24 25 25
23 22 22 21 19 18 20 21 18 13 13 14 12 11 11 9 8 8 7 8 8 8 10 11 8 7 5 3 3 4 6 7 8 9 9 9 10 12 12 12 11 12 14 17 17 17 17 17 18 19 20 21 23 25 26 27 28 28 28 29 29 29 29 28 28 28 28 28 28 28 28 28 27 27 27 27 27 27 27 27 27 27 27 27 26
24 23 23 22 20 19 19 21 18 14 12 14 13 11 9 8 8 9 9 9 9 6 10 11 9 7 5 2 1 2 3 6 9 11 10 11 11 12 13 13 11 11 13 16 18 18 17 17 18 18 19 20 21 23 26 28 29 29 29 29 30 30 30 30 29 29 29 29 29 30 31 31 31 30 30 30 30 30 30 29 29 28 28 27 27
24 23 23 23 21 19 19 21 19 15 12 13 15 11 10 10 9 9 10 10 10 5 7 10 10 7 3 2 1 1 1 5 8 11 11 11 12 12 12 12 12 12 14 16 17 18 18 18 18 19 19 19 19 21 24 26 28 29 29 29 29 30 31 31 31 30 30 30 30 31 31 32 32 32 32 32 32 31 30 30 29 29 28 28 27
25 24 24 24 21 19 20 22 20 16 13 13 16 13 10 11 11 11 11 11 13 9 5 7 10 7 3 2 1 0 2 2 3 5 9 12 11 11 12 12 12 13 15 16 17 18 18 19 20 19 19 19 19 20 21 23 26 27 28 29 29 30 30 31 31 31 31 31 31 31 31 32 32 32 32 32 32 30 29 29 29 29 28 28 28
25 26 25 23 21 19 19 23 23 18 14 14 17 17 13 12 13 14 12 12 15 14 9 5 5 7 6 4 2 2 2 3 2 2 5 10 9 9 11 11 12 14 16 16 17 19 19 20 21 20 19 19 19 20 21 22 23 25 26 27 27 28 30 30 31 31 31 31 31 31 31 32 32 32 32 32 31 30 29 29 29 29 29 29 29
25 26 25 23 21 19 19 23 25 21 17 15 17 18 17 16 15 14 14 15 16 16 13 7 4 6 7 7 5 4 2 2 3 1 1 5 8 8 9 9 10 13 16 16 16 18 20 20 20 20 20 19 19 20 21 22 22 22 23 23 23 24 26 28 29 30 31 31 31 31 31 31 31 32 32 31 31 30 30 30 30 30 30 30 29
24 24 24 23 22 20 20 22 26 25 20 17 16 17 18 16 15 16 15 15 15 14 12 9 7 7 7 8 7 5 4 3 2 3 2 1 4 6 7 8 10 12 14 14 15 16 19 20 19 19 19 19 20 20 21 21 21 21 21 21 21 22 22 24 26 28 29 30 31 31 32 32 32 32 31 31 31 31 31 31 30 30 30 30 29
26 25 24 24 22 20 20 20 23 25 23 20 17 17 18 17 16 17 14 11 11 11 10 10 9 9 8 9 8 6 5 4 3 3 3 2 2 3 4 6 7 10 12 13 13 14 16 18 18 18 18 19 19 20 21 21 21 21 21 20 20 20 20 21 22 23 25 27 28 29 30 32 32 32 32 31 31 30 30 30 30 29 29 28 28
27 27 25 24 21 20 20 20 21 23 24 23 20 18 18 18 17 17 15 12 11 10 10 9 8 9 9 9 9 8 6 4 5 6 4 3 3 4 6 6 5 7 7 8 10 12 13 15 17 18 17 18 19 19 20 21 21 21 20 19 19 18 18 18 19 20 21 22 24 26 27 28 30 31 31 31 30 29 29 29 28 28 27 27 26
28 28 27 24 22 21 21 21 21 22 23 23 23 21 19 18 17 17 17 16 14 13 13 10 8 9 10 10 11 11 8 7 8 9 7 5 3 4 7 7 7 8 6 5 6 9 11 13 15 17 16 17 19 19 19 19 18 18 18 18 18 18 18 17 18 18 19 20 21 22 23 24 26 27 29 29 29 28 28 27 27 26 26 25 25
27 29 28 26 24 22 22 22 23 23 23 23 22 22 21 20 18 17 18 17 17 18 16 13 11 11 11 12 12 11 11 10 10 11 11 10 7 4 6 6 6 8 8 7 8 8 10 12 14 15 16 16 17 18 18 18 17 16 16 17 17 18 18 17 17 17 18 19 19 20 21 21 22 23 25 26 26 26 26 26 26 25 25 24 24
22 28 29 27 25 24 23 24 25 24 24 23 22 21 22 23 22 19 18 16 17 21 21 15 14 14 13 13 12 12 12 11 11 13 13 13 10 6 7 6 5 7 9 8 8 8 9 11 13 14 15 16 16 16 17 17 18 16 15 16 16 16 17 17 17 17 17 18 18 19 19 20 20 21 23 23 24 24 25 25 24 24 24 24 24
16 22 28 28 26 25 25 26 26 26 25 25 24 22 20 23 24 23 20 16 14 19 22 18 15 15 14 13 12 12 11 11 12 14 15 14 12 10 7 5 5 8 8 7 7 7 8 10 12 14 15 16 16 17 18 18 19 18 17 17 17 17 17 17 18 19 19 18 18 18 18 19 20 21 21 21 21 21 22 22 22 23 23 23 24
13 15 21 27 28 26 26 27 28 28 27 26 26 23 20 21 24 24 22 18 14 15 18 18 17 16 15 14 13 12 13 13 12 13 15 16 15 15 11 4 3 5 4 5 7 8 9 10 11 13 16 17 17 18 19 19 18 17 18 19 19 19 18 18 19 19 19 19 19 18 17 18 19 20 20 19 20 19 19 20 21 21 22 22 23
14 12 14 20 25 26 27 29 30 29 28 27 27 25 22 21 22 23 22 19 15 14 16 18 18 17 17 16 15 14 14 14 12 11 12 14 15 17 15 10 5 3 2 3 4 5 7 8 8 11 15 17 18 19 20 20 18 17 17 19 20 20 18 18 19 19 19 19 19 18 18 17 18 19 19 19 19 18 18 19 19 20 21 22 22
17 16 14 14 16 18 22 24 27 29 30 29 29 27 25 24 24 24 23 19 16 15 15 17 18 17 18 18 17 17 16 15 15 15 14 14 14 14 15 15 12 6 1 2 3 3 4 6 6 7 11 14 17 18 19 20 18 16 16 18 20 20 19 19 19 18 17 17 17 17 17 17 17 18 19 19 19 18 18 18 18 19 20 19 18
18 18 17 16 14 13 15 18 21 25 28 30 31 29 27 27 26 26 25 22 18 17 16 17 17 17 18 18 18 19 18 17 16 16 16 16 15 13 13 15 16 11 6 3 4 6 7 8 9 8 9 12 14 16 17 17 16 16 16 18 20 20 20 20 20 19 17 16 16 16 15 16 16 17 18 18 18 17 17 18 19 20 18 16 15
21 19 19 20 20 18 16 16 18 21 25 29 31 31 30 29 27 26 26 24 21 20 19 18 18 17 18 18 18 18 18 17 16 15 15 15 15 15 14 14 16 15 13 9 4 6 10 10 10 10 10 11 12 13 14 15 14 15 15 17 19 20 20 21 21 21 19 17 17 17 16 15 16 16 17 18 18 17 17 18 19 19 17 15 14
23 21 20 22 23 23 21 19 19 20 21 25 29 31 31 30 29 27 26 25 24 23 22 21 19 18 19 19 19 19 18 17 17 17 18 17 16 15 14 15 15 16 16 13 6 7 13 14 12 12 11 12 13 13 13 13 14 14 15 15 16 18 20 21 22 22 20 19 18 18 17 16 16 16 17 17 18 17 17 17 18 17 16 14 13
22 20 21 22 22 23 23 23 23 22 21 23 25 30 32 31 30 29 28 26 25 25 23 22 22 20 20 20 20 20 19 19 19 18 19 18 17 15 15 15 16 16 17 16 11 9 13 15 15 14 13 13 14 13 12 13 14 15 16 16 16 17 18 20 21 22 21 20 19 18 18 17 16 16 17 17 17 18 17 17 17 16 15 14 12
23 21 20 20 22 22 20 21 24 25 24 24 27 29 32 33 33 31 30 28 26 26 25 24 24 23 23 23 22 22 21 20 20 19 18 17 17 16 15 14 15 16 18 19 15 11 12 15 15 14 14 14 14 14 12 13 14 15 16 16 16 17 19 20 22 24 23 22 21 20 19 18 18 17 17 17 17 17 17 17 17 15 15 14 14
24 24 22 21 21 20 18 20 23 25 27 26 26 28 31 33 34 33 31 30 28 27 27 27 26 26 25 25 25 24 22 21 21 20 20 19 18 18 17 16 16 16 18 20 18 14 14 15 15 15 15 15 16 15 13 14 14 14 15 15 16 17 19 21 23 24 23 22 21 21 20 19 19 18 18 17 17 17 17 17 17 16 15 15 15
25 26 26 24 22 20 19 21 21 23 26 27 26 26 28 31 33 33 31 30 30 30 29 29 28 27 27 26 26 25 23 23 23 22 21 19 19 19 19 19 18 16 17 19 19 17 15 14 15 16 15 16 16 15 14 15 15 15 16 16 16 17 18 20 22 22 21 19 19 19 19 19 20 20 20 19 19 18 18 18 17 16 15 15 15
26 27 29 28 26 24 23 23 21 22 25 28 27 24 25 30 32 32 32 31 31 31 31 31 30 29 28 26 25 24 24 24 24 22 21 19 19 20 19 19 19 17 17 19 20 19 17 16 16 17 16 16 16 15 15 15 15 15 16 16 16 16 17 18 20 21 20 19 18 19 20 20 20 20 20 20 20 20 19 18 18 17 16 16 15
28 28 28 29 29 27 26 25 24 23 25 29 29 26 26 29 31 31 32 32 32 33 32 32 31 30 29 28 26 24 24 24 23 22 21 20 20 20 20 19 19 18 18 19 20 20 19 19 18 17 16 16 16 15 15 15 14 14 14 14 14 15 16 17 18 19 20 20 20 20 20 21 21 20 20 20 21 21 21 20 19 17 17 17 16
29 27 25 26 27 27 27 26 25 24 25 28 29 27 27 29 29 31 33 34 33 33 33 33 32 31 31 29 28 26 24 24 23 22 20 20 20 21 21 20 19 19 18 19 20 19 19 19 19 18 18 17 16 15 14 12 12 12 12 13 13 14 14 16 17 18 18 19 19 19 19 19 19 19 19 19 20 21 22 21 19 18 17 17 17
27 28 26 25 25 25 26 27 26 25 25 25 25 26 27 28 29 30 34 37 35 34 34 33 32 32 31 30 29 27 26 24 23 22 21 22 22 22 21 20 19 19 20 20 20 20 20 19 18 19 18 17 16 15 13 10 11 12 13 13 14 14 14 14 15 16 16 17 17 16 16 17 17 18 18 18 19 20 21 21 19 19 18 18 17
26 27 26 25 24 24 25 27 27 26 27 27 27 27 27 28 28 26 31 36 35 33 34 33 33 33 32 31 30 28 27 25 23 22 22 24 25 24 23 21 20 20 21 21 21 21 20 18 17 17 16 16 17 16 14 13 14 15 13 11 12 14 13 13 14 14 14 15 14 15 15 16 17 17 17 18 18 18 20 20 19 19 18 18 17
27 27 25 24 24 23 23 25 26 27 28 29 28 28 28 29 28 25 26 31 32 33 33 33 33 33 32 31 30 29 27 25 24 24 23 24 24 23 21 20 20 20 21 21 22 22 20 18 18 17 15 16 19 18 17 17 16 15 13 12 12 11 10 11 13 14 14 15 15 16 16 15 15 16 17 17 17 17 18 18 18 17 17 16 15
25 26 25 24 25 24 24 24 25 27 29 29 27 27 27 28 28 27 27 28 30 32 33 33 33 33 32 32 31 29 28 26 25 24 23 22 22 22 21 20 19 20 22 22 23 23 21 19 19 18 17 17 20 20 18 17 15 14 13 13 12 11 9 8 10 12 11 11 12 14 14 12 12 14 15 15 15 15 15 15 15 15 16 15 15
23 24 24 24 24 24 23 23 24 26 28 29 27 26 25 25 25 27 29 28 29 30 31 32 33 33 32 32 32 31 30 27 25 23 23 23 23 23 23 22 21 21 21 23 24 24 23 22 20 20 20 20 19 19 17 15 13 12 12 12 12 12 11 10 10 11 9 7 8 11 12 10 9 12 14 14 14 14 14 14 13 14 14 14 15
20 21 21 22 22 22 22 22 24 26 28 28 27 26 27 26 25 26 28 29 28 29 30 30 30 31 31 31 31 31 30 27 24 23 23 23 23 23 21 21 22 22 22 24 25 24 24 23 22 23 23 21 19 18 15 13 12 12 12 13 13 13 13 13 14 14 11 9 8 9 12 11 10 11 14 13 13 14 13 13 13 13 13 14 13
19 19 20 20 20 20 21 22 24 26 27 27 25 25 26 28 28 28 28 28 28 29 30 30 30 30 30 29 30 30 29 26 25 23 23 23 24 24 23 23 24 24 23 23 24 26 25 23 24 25 23 20 19 16 12 11 12 12 13 13 12 12 12 13 13 13 12 11 9 8 10 12 10 11 13 14 13 14 13 13 13 13 12 11 10
18 19 19 19 20 20 21 22 23 25 26 26 25 24 24 26 28 27 27 28 29 29 29 29 29 30 30 29 30 30 28 27 25 24 23 24 24 24 24 25 25 24 23 23 24 26 26 24 24 24 21 19 17 15 12 10 10 10 11 11 10 9 9 10 11 12 11 11 10 8 8 10 10 10 12 13 13 13 13 13 13 12 10 9 9
17 18 18 19 20 20 21 21 22 24 25 25 25 24 23 23 24 24 25 27 29 30 29 29 29 30 30 29 29 30 28 27 25 23 23 23 23 23 23 24 24 24 24 23 23 23 23 23 22 22 19 17 16 14 12 11 10 9 9 9 9 8 7 7 8 10 9 7 8 9 11 12 11 10 11 12 12 13 13 13 12 10 9 8 7
15 15 17 19 19 19 20 20 21 23 24 23 21 21 22 21 21 21 23 25 27 28 29 29 29 29 29 29 29 29 29 26 24 23 21 20 20 20 21 22 22 23 22 21 21 21 20 19 18 17 17 16 15 14 12 11 10 9 9 9 9 8 8 6 6 8 9 7 7 8 11 12 11 10 11 11 12 13 12 12 11 9 8 7 6
15 13 12 15 17 18 19 20 21 23 23 20 17 17 17 18 19 22 23 24 24 26 28 28 27 27 27 27 27 29 28 26 24 22 20 20 19 19 19 20 20 21 20 20 19 18 16 15 15 15 14 13 13 13 12 10 9 8 9 9 8 9 9 8 7 8 9 9 8 7 9 10 10 10 10 9 9 11 11 11 11 10 9 7 6
15 13 11 13 16 17 18 20 20 20 21 19 16 15 16 16 18 21 22 23 24 25 26 26 26 27 27 26 26 27 27 25 24 23 21 21 21 20 20 20 20 20 19 18 18 17 15 15 15 15 13 12 12 12 11 9 9 9 9 9 9 10 11 11 9 6 5 6 8 8 9 10 10 11 11 7 4 7 11 12 12 12 10 9 8
Wind_Direction
250 264 261 251 258 268 270 274 275 274 276 270 259 249 243 242 241 241 238 234 235 231 229 232 234 231 226 225 231 237 236 234 233 230 228 222 216 214 210 205 201 199 198 197 200 201 201 204 204 205 205 205 206 205 206 200 196 202 205 206 208 207 208 210 211 213 215 217 217 219 221 225 231 235 233 230 231 234 237 243 247 251 255 258 263
244 261 262 255 259 263 268 271 270 271 273 270 262 253 244 238 237 237 234 233 234 231 228 225 224 223 221 222 225 229 233 233 235 235 233 228 222 217 211 208 205 202 201 198 200 204 204 205 206 206 207 207 208 208 208 204 202 205 208 209 210 211 212 214 215 215 217 220 221 223 225 227 231 234 237 235 234 237 239 245 249 250 255 257 260
239 254 259 257 255 258 265 266 267 268 270 274 266 252 241 234 233 235 234 230 229 226 224 222 220 216 214 221 222 221 225 225 230 236 236 232 224 217 211 210 209 205 203 201 200 203 206 206 207 207 208 208 209 210 211 210 208 208 210 212 213 215 215 216 218 219 220 222 225 226 227 230 233 234 238 240 241 243 244 247 250 251 255 258 262
236 243 246 251 256 263 267 264 264 265 274 277 259 240 233 234 233 238 244 236 228 222 220 226 229 224 221 226 225 226 225 220 225 232 233 228 217 210 209 210 210 207 205 204 203 204 207 208 208 209 209 210 210 211 213 215 215 212 213 214 216 218 218 219 221 223 223 225 227 229 230 233 235 236 238 242 245 248 251 254 257 257 259 262 265
237 241 244 249 259 265 263 260 257 265 281 269 237 224 226 233 231 236 247 244 229 216 214 232 235 224 221 228 236 237 226 219 225 227 224 220 209 206 208 209 210 208 205 204 206 208 209 210 210 211 212 212 212 213 214 216 218 219 217 218 219 219 221 222 223 225 226 228 230 232 233 235 237 239 239 242 246 250 253 259 261 261 262 265 267
239 243 244 244 254 258 257 256 252 273 285 251 215 217 227 235 235 236 247 250 234 215 220 250 249 227 217 229 247 245 226 221 224 221 218 214 208 208 208 206 208 209 206 205 208 211 211 212 213 213 214 213 214 215 216 216 219 222 222 223 223 220 221 224 225 226 227 230 233 235 236 237 240 241 241 242 246 250 253 258 262 263 265 268 268
238 241 243 243 249 253 255 254 254 282 281 231 209 230 236 249 249 244 251 255 241 220 223 268 270 234 222 235 250 250 231 222 222 218 218 218 213 212 210 207 206 207 207 206 207 211 213 214 214 215 215 215 215 217 217 217 219 222 225 227 227 225 224 225 226 227 229 230 233 236 238 240 241 243 244 244 246 249 252 256 260 262 265 267 268
238 239 242 243 247 249 251 247 247 276 264 219 228 249 246 259 261 257 258 256 244 226 228 257 263 215 215 232 240 240 226 216 221 217 217 221 217 215 217 217 212 206 206 206 207 210 214 216 216 216 217 217 217 218 218 219 220 222 225 228 230 231 230 229 229 229 230 232 234 236 239 241 243 245 247 247 248 249 251 254 257 260 263 265 267
237 238 240 242 246 246 245 241 241 267 258 227 237 246 245 258 263 268 263 247 236 227 228 250 254 217 218 227 228 231 222 218 225 220 218 220 217 218 220 219 216 213 209 208 209 210 213 216 217 217 218 219 219 220 220 220 221 223 225 227 229 232 234 234 233 232 233 235 237 237 239 241 244 247 249 249 249 249 251 254 257 261 263 265 267
236 237 239 242 244 241 239 238 240 259 254 229 236 244 248 263 269 274 258 231 230 228 226 255 259 230 234 237 231 229 224 226 229 224 224 222 219 223 225 221 216 215 213 208 210 212 213 216 218 218 220 221 221 222 222 222 222 224 226 227 229 232 234 236 235 234 235 237 239 239 240 241 244 249 250 249 248 247 249 252 256 260 262 264 266
239 239 243 245 242 237 238 237 238 254 252 236 242 247 252 267 270 270 239 225 242 240 221 254 258 231 227 232 231 228 221 221 223 220 222 224 222 218 220 222 217 213 213 209 209 213 215 215 217 219 221 222 223 223 223 223 223 225 226 228 230 232 234 235 235 235 236 237 240 241 242 242 244 248 250 249 248 247 248 251 255 258 261 264 267
242 243 245 247 244 239 241 238 237 254 254 241 240 240 251 269 265 255 230 228 241 234 220 233 237 222 211 209 213 220 216 211 216 218 219 221 218 212 211 216 217 214 213 211 209 212 214 215 216 219 222 223 223 224 226 226 226 227 228 229 230 232 234 235 236 236 237 238 240 241 242 242 243 245 248 249 250 250 251 254 257 259 261 264 267
241 242 242 245 247 243 243 240 238 254 253 236 232 238 255 270 255 238 247 253 243 231 219 211 215 209 195 204 210 219 224 218 220 223 225 226 217 212 212 212 215 215 215 215 214 213 212 213 215 219 222 223 222 223 226 228 229 230 230 231 231 232 233 235 236 237 238 239 240 242 242 242 242 243 246 248 249 251 253 255 257 258 260 264 267
238 241 242 243 246 244 242 238 237 250 248 227 228 244 253 253 234 230 252 271 276 249 213 196 202 206 186 188 227 238 244 242 239 235 231 230 224 218 216 215 215 216 215 216 216 216 215 214 215 218 221 223 223 223 224 227 229 230 231 232 233 233 233 234 235 237 238 239 240 241 243 243 243 244 246 247 249 251 254 255 257 258 261 265 267
237 240 242 242 245 243 236 233 233 244 246 226 228 242 240 230 229 242 255 269 285 268 216 204 196 189 170 146 224 234 255 253 244 242 237 229 228 227 223 221 222 222 218 216 216 217 218 219 218 219 220 223 224 224 225 226 228 230 230 232 233 234 235 235 235 236 237 238 239 240 242 243 244 246 248 249 251 253 255 257 259 261 264 266 267
237 239 241 241 243 240 231 228 228 237 245 233 230 234 233 233 238 247 253 267 281 263 216 219 210 190 155 132 136 109 271 251 235 239 240 230 231 232 227 226 225 225 222 220 223 221 220 223 224 223 224 226 228 228 228 228 230 232 232 232 233 234 235 237 237 238 238 239 240 241 242 243 245 247 249 252 254 255 257 259 261 263 265 266 267
237 239 240 238 240 239 230 225 226 231 237 236 235 236 239 244 249 251 248 261 271 261 221 220 226 224 205 159 104 69 250 233 224 243 231 221 231 233 226 229 229 226 225 225 228 227 224 225 227 227 228 229 231 232 231 230 231 233 235 235 235 236 237 238 239 239 241 242 243 244 244 245 246 248 251 253 255 257 258 260 261 263 264 266 267
238 237 236 234 237 241 232 223 223 224 228 235 238 239 243 249 250 248 246 253 261 262 253 227 231 242 237 235 255 254 223 166 153 274 233 225 236 233 224 230 233 228 225 226 228 228 227 227 229 230 229 230 231 232 233 232 231 232 235 236 236 237 239 240 241 241 242 243 244 245 246 247 248 250 252 254 256 257 259 260 261 263 264 266 268
235 232 230 230 235 241 234 222 220 221 225 234 238 239 241 247 246 241 248 258 259 255 247 228 224 237 235 244 257 254 229 174 183 212 262 241 238 230 228 233 236 230 224 225 228 229 229 228 230 232 231 231 231 231 232 233 234 233 235 237 238 239 240 241 242 243 244 245 246 247 248 249 250 251 253 255 257 258 259 261 262 264 265 267 269
230 227 227 229 234 239 236 223 219 221 224 232 238 237 236 241 247 248 255 261 255 243 228 216 223 232 229 234 245 243 221 211 216 190 146 225 249 240 235 235 240 237 229 227 228 229 230 230 231 232 233 233 232 233 235 236 238 239 239 240 241 242 243 244 245 245 246 247 248 248 249 250 251 252 254 256 257 259 260 262 263 264 266 268 269
226 226 227 229 233 237 232 223 221 221 223 230 236 234 235 239 246 252 254 245 232 224 216 216 227 234 232 225 224 221 214 225 238 208 171 182 252 252 236 237 245 245 238 233 231 230 230 231 234 234 234 235 234 234 236 239 241 242 242 243 243 244 246 247 248 248 248 248 248 249 249 250 251 252 254 256 258 260 261 263 264 266 268 270 271
222 224 228 231 234 233 226 222 223 223 224 230 233 233 235 238 241 248 249 232 218 221 230 236 237 239 241 228 215 209 208 223 225 218 204 201 228 255 255 251 255 264 261 245 236 232 231 234 235 234 234 235 235 233 235 238 241 243 245 245 245 245 246 248 250 251 250 250 250 250 250 250 251 252 254 256 258 260 262 264 266 268 270 271 271
221 223 227 232 233 231 228 226 227 227 228 230 233 234 233 235 240 247 250 241 236 242 248 250 243 239 246 240 225 218 220 233 234 222 212 206 212 247 258 259 260 269 284 284 257 235 230 236 235 233 234 236 236 235 235 238 241 246 250 250 249 249 250 251 251 253 253 252 253 253 253 253 252 253 254 256 258 260 262 264 266 268 269 271 272
222 223 226 231 231 230 230 231 231 231 232 233 235 236 235 236 240 248 253 251 249 247 246 248 238 230 240 239 230 231 238 249 251 235 224 224 222 230 259 267 266 269 281 296 286 260 240 238 237 235 235 237 240 239 238 240 243 248 252 253 250 248 248 249 251 253 253 254 256 255 255 254 254 254 255 255 257 258 260 262 264 266 268 270 271
227 227 229 230 231 231 231 232 233 234 235 236 238 240 241 239 238 245 252 256 256 247 241 243 237 230 234 234 234 243 246 252 255 244 235 233 227 231 259 259 246 266 283 289 286 280 263 248 243 241 241 242 245 246 244 245 248 251 253 254 250 244 242 245 250 254 254 254 255 255 255 254 253 254 254 254 255 256 258 260 262 264 266 269 271
237 234 235 234 232 232 233 233 235 237 239 239 239 242 246 240 235 239 246 253 259 248 240 237 233 232 232 231 236 243 243 251 254 244 237 232 225 225 241 250 241 253 271 275 274 278 272 262 252 246 246 248 249 250 249 248 251 253 252 251 249 245 244 246 251 254 253 251 251 252 253 252 252 253 252 253 254 255 257 259 260 263 266 270 274
242 239 238 237 235 233 233 235 237 238 240 241 239 240 246 243 236 237 242 248 253 245 235 230 226 228 231 233 239 243 245 251 251 246 242 239 239 238 233 222 248 260 264 267 270 272 272 272 263 250 247 247 246 247 248 248 251 254 251 247 245 246 248 251 254 255 253 249 249 251 252 251 251 253 252 251 253 256 257 258 261 265 268 271 274
241 240 234 235 238 236 235 236 238 238 239 240 239 238 242 244 240 240 241 239 236 230 225 224 223 226 232 237 241 242 244 244 242 245 248 246 250 252 243 225 218 252 290 283 277 276 270 265 261 256 249 245 244 243 244 248 251 254 252 245 242 244 248 253 257 258 254 250 249 251 252 251 251 252 252 251 253 256 257 260 264 267 270 272 271
243 242 235 237 241 238 240 243 241 239 238 238 239 237 239 244 244 244 240 230 224 221 217 219 221 225 232 235 239 243 244 244 245 248 250 253 255 256 252 240 224 211 216 277 261 246 249 248 250 260 254 246 245 242 243 248 251 253 251 241 239 242 247 252 256 257 254 249 247 249 251 251 250 250 252 254 254 255 258 262 265 267 270 271 269
243 244 244 249 249 239 240 250 250 245 242 238 238 237 237 240 244 243 236 228 226 222 217 219 221 225 232 235 239 244 247 247 248 248 248 253 255 253 252 244 233 224 209 211 246 238 234 242 247 255 258 249 244 243 246 249 251 251 248 240 239 243 248 252 253 253 253 250 246 248 250 252 252 251 252 256 256 256 260 263 265 269 271 269 265
246 249 251 252 253 248 242 250 257 255 251 244 238 237 236 237 240 238 232 229 231 228 223 225 227 230 234 238 241 242 245 246 246 247 247 251 255 255 253 244 239 238 227 209 221 245 239 245 249 248 252 252 248 248 249 249 247 246 244 241 242 246 250 253 252 250 251 252 249 249 251 253 253 253 253 256 258 258 259 261 268 274 273 266 261
253 254 255 256 257 253 247 251 258 259 260 255 242 234 233 235 237 235 232 232 234 234 234 233 234 235 234 237 242 240 241 244 244 247 251 256 259 257 253 246 241 240 230 213 206 243 245 249 254 250 250 255 258 255 250 246 243 242 243 244 246 250 252 254 252 248 248 251 249 247 249 251 253 254 253 255 258 260 260 265 273 277 272 263 254
253 254 255 257 259 256 251 254 259 263 272 277 264 244 234 234 236 235 234 235 236 237 238 236 234 235 234 236 240 240 239 244 247 250 256 259 260 256 250 245 240 236 228 217 213 236 249 251 255 254 251 252 257 256 252 249 245 244 247 249 251 252 253 253 251 248 249 250 248 245 245 248 252 254 255 256 258 261 264 270 275 276 271 259 245
239 243 248 252 256 259 258 254 253 254 261 275 276 261 245 235 232 234 235 235 238 239 237 236 234 232 233 235 237 238 240 245 249 252 256 256 257 256 248 241 240 239 232 226 222 225 244 253 255 254 247 244 250 254 254 255 253 251 251 252 252 251 250 251 250 250 252 253 252 247 244 246 251 253 255 256 258 260 264 269 271 272 270 259 247
226 229 235 242 249 254 254 250 248 247 250 259 265 261 254 243 231 231 235 235 236 238 235 235 235 232 233 236 238 240 241 243 247 252 256 257 255 252 245 242 247 248 243 237 230 224 236 252 259 258 249 242 244 249 254 258 259 256 254 253 252 251 251 251 250 251 254 256 254 249 245 247 251 253 255 255 256 258 261 264 267 268 267 262 256
226 223 224 230 238 240 238 240 244 243 244 249 250 249 255 257 242 231 233 235 234 235 235 235 236 235 236 238 240 241 239 241 247 253 256 255 250 246 246 248 248 246 244 240 235 233 237 248 259 261 255 246 245 247 250 253 255 257 259 259 257 255 253 251 250 252 255 256 253 247 244 248 253 255 256 254 253 254 256 259 261 262 264 263 262
234 226 220 220 225 228 228 230 234 235 234 238 244 242 248 262 259 241 231 232 234 234 235 236 237 238 239 239 240 240 239 243 249 252 252 248 245 246 249 250 246 242 241 238 238 240 242 247 256 261 259 252 249 248 246 246 251 256 260 262 261 258 255 251 250 251 254 255 252 248 247 250 254 256 255 253 251 250 251 254 256 258 261 262 264
239 231 223 219 220 223 226 229 231 232 230 232 238 238 237 250 261 254 238 233 234 236 235 236 238 239 240 241 242 242 242 245 249 250 248 245 244 245 248 248 245 242 240 237 238 240 241 246 253 259 260 254 249 249 248 247 251 256 260 264 264 259 254 252 252 252 253 254 253 252 253 255 257 258 258 258 255 250 249 251 253 255 257 260 262
242 237 229 223 221 222 224 228 230 230 230 231 235 239 238 237 243 250 247 239 235 237 236 236 237 237 239 241 243 244 244 246 248 247 245 243 242 245 248 249 246 242 239 237 236 238 240 244 248 252 256 255 251 250 252 254 254 256 261 265 264 261 256 253 254 253 253 255 256 258 259 260 261 261 259 259 256 252 250 250 252 254 256 258 259
247 243 237 231 230 230 229 231 231 230 229 231 234 239 240 233 229 238 245 241 236 235 235 235 236 236 238 240 242 244 245 247 247 245 243 243 241 242 246 248 246 242 238 235 235 238 239 240 241 245 249 251 251 250 252 249 245 250 255 257 262 268 266 261 259 258 257 257 259 262 264 263 263 262 260 258 256 253 251 251 252 255 254 253 253
256 252 248 243 239 236 235 235 235 234 233 234 235 233 231 228 225 230 238 238 234 233 232 232 233 234 236 239 241 243 245 247 248 249 250 248 245 244 246 247 247 243 238 236 235 234 234 235 237 241 243 244 245 246 244 240 240 248 253 254 263 272 272 266 262 258 256 259 262 265 267 267 265 263 261 260 259 256 255 256 256 258 259 256 253
262 258 253 249 244 238 235 235 237 239 240 240 240 236 231 228 227 228 232 233 231 230 229 229 229 231 233 237 239 242 244 246 249 252 254 251 247 245 248 249 249 246 241 239 236 231 228 229 232 234 234 237 240 240 242 246 249 251 253 255 263 270 269 266 267 265 259 259 261 264 268 270 267 263 259 258 258 257 257 259 260 262 266 266 261
261 258 253 249 247 244 240 238 238 239 241 241 241 239 234 231 231 232 233 233 231 229 227 226 227 229 231 235 239 242 243 244 248 251 251 248 244 243 245 247 248 247 243 239 237 233 226 225 230 231 229 233 240 243 246 251 253 252 252 255 257 258 255 256 269 274 268 259 256 261 269 273 271 265 260 258 259 257 257 260 261 263 265 265 260
259 256 251 249 249 249 246 243 242 243 243 243 242 238 233 229 229 231 233 233 231 230 229 228 229 230 233 236 239 241 243 244 246 247 246 246 247 249 249 248 248 248 242 239 240 238 231 227 228 229 230 234 240 245 246 247 249 248 248 250 250 250 249 245 251 261 268 267 260 262 271 276 273 268 265 262 261 259 259 261 261 262 265 266 266
260 256 255 255 254 253 249 243 242 244 246 246 244 241 236 232 229 230 231 231 230 232 233 233 233 233 235 237 239 241 242 243 243 244 244 245 250 253 253 251 252 249 242 239 241 242 239 236 233 232 233 236 240 243 243 242 244 242 239 242 245 245 245 247 254 262 269 273 265 260 267 272 270 266 264 262 259 258 260 264 264 264 267 269 272
265 262 262 262 258 253 248 243 242 245 248 250 250 248 244 240 237 235 235 235 234 236 238 238 237 236 236 238 240 240 241 242 242 242 243 244 246 249 250 251 253 252 248 242 240 240 241 240 238 239 241 242 244 248 247 242 243 242 241 242 244 246 251 259 267 272 273 273 267 256 263 272 270 262 260 258 255 256 260 264 266 266 267 266 267
271 269 266 262 258 252 247 244 244 246 249 251 252 251 248 244 240 238 239 239 237 236 236 237 238 239 239 239 240 240 240 242 243 243 243 244 244 244 246 248 250 253 252 248 243 243 243 240 238 241 245 249 252 253 251 245 243 246 247 247 248 251 258 266 271 273 272 273 268 250 254 272 270 257 258 256 251 252 254 256 258 258 259 263 265
272 273 270 267 263 258 253 248 244 246 249 250 249 249 248 245 242 240 240 239 236 233 233 235 238 242 242 239 238 239 240 242 244 243 243 244 243 242 245 247 246 246 248 247 245 246 247 243 241 244 249 253 255 254 251 247 246 247 244 243 243 242 244 254 268 274 276 279 273 253 248 265 268 255 254 256 249 247 248 248 250 251 252 260 266
263 263 268 272 270 265 261 256 252 253 255 254 251 249 248 247 244 241 240 237 233 232 233 234 236 239 238 235 235 238 239 240 241 239 235 234 236 240 242 243 241 241 244 248 247 247 247 245 245 248 250 251 250 249 249 246 241 235 226 229 234 230 226 234 255 270 274 280 286 263 245 257 268 255 247 249 244 240 242 243 243 243 249 258 265
267 263 266 272 273 269 265 261 259 259 260 260 257 252 248 245 242 241 241 237 234 233 232 231 232 233 234 234 234 235 236 237 236 234 230 225 227 234 236 236 236 238 241 246 245 242 239 239 240 241 240 241 240 239 236 228 218 214 220 234 242 233 227 228 237 261 275 276 276 261 239 248 258 241 230 234 234 233 237 239 239 241 250 257 260
284 285 280 276 276 274 270 267 263 261 262 264 262 255 250 246 241 240 238 234 231 232 232 231 230 229 231 233 232 231 233 233 232 232 230 224 222 227 229 229 230 234 238 242 240 235 232 232 234 232 230 231 228 220 212 206 208 218 231 242 247 241 237 235 235 250 277 270 260 249 237 241 241 224 213 207 212 231 236 235 236 242 249 252 254